YB3RDW-13 Weather Reports


time (UTC)temp
F
wind
direction
speed
knots
gust
knots
rain 1hr
in
rain 24hr
in
rain mn
in
humidity
%
barometer
mb
20260507224657 78 113 1.7 1.7 0.00 0.00 0.00 93 1011.0
20260507224157 78 126 2.6 2.6 0.00 0.00 0.00 93 1011.0
20260507223657 78 125 2.6 2.6 0.00 0.00 0.00 93 1011.0
20260507223157 78 148 0.9 0.9 0.00 0.00 0.00 93 1011.0
20260507222658 78 128 1.7 1.7 0.00 0.00 0.00 93 1011.0
20260507222158 77 125 2.6 2.6 0.00 0.00 0.00 94 1011.0
20260507221658 78 147 0.9 1.7 0.00 0.00 0.00 94 1011.0
20260507221157 78 152 0.9 0.9 0.00 0.00 0.00 94 1011.0
20260507220657 78 145 0.9 0.9 0.00 0.00 0.00 94 1010.0
20260507220157 78 155 0.0 0.0 0.00 0.00 0.00 94 1010.0
20260507215657 78 157 0.0 0.0 0.00 0.00 0.00 94 1010.0
20260507215157 78 129 1.7 1.7 0.00 0.00 0.00 94 1010.0
20260507214657 78 102 1.7 1.7 0.00 0.00 0.00 94 1010.0
20260507214158 78 137 0.9 1.7 0.00 0.00 0.00 94 1010.0
20260507213657 78 127 0.9 0.9 0.00 0.00 0.00 94 1010.0
20260507213159 78 132 1.7 1.7 0.00 0.00 0.00 95 1010.0
20260507212657 78 130 0.9 0.9 0.00 0.00 0.00 94 1010.0
20260507212157 78 141 1.7 1.7 0.00 0.00 0.00 94 1010.0
20260507211657 78 147 0.0 0.0 0.00 0.00 0.00 94 1010.0
20260507211157 78 120 2.6 2.6 0.00 0.00 0.00 94 1010.0
20260507210657 78 140 0.9 0.9 0.00 0.00 0.00 94 1010.0
20260507210157 79 156 0.0 0.9 0.00 0.00 0.00 94 1010.0
20260507205657 79 157 0.0 0.0 0.00 0.00 0.00 94 1010.0
20260507205157 79 138 0.0 0.0 0.00 0.00 0.00 94 1010.0
20260507204657 79 157 0.0 0.0 0.00 0.00 0.00 94 1010.0
20260507204157 79 158 0.0 0.9 0.00 0.00 0.00 94 1010.0
20260507203657 79 149 1.7 1.7 0.00 0.00 0.00 94 1010.0
20260507203158 79 129 2.6 2.6 0.00 0.00 0.00 94 1010.0
20260507202657 79 149 1.7 1.7 0.00 0.00 0.00 93 1010.0
20260507202157 79 123 0.9 1.7 0.00 0.00 0.00 94 1010.0
20260507201657 79 142 0.9 0.9 0.00 0.00 0.00 94 1010.0
20260507201157 79 150 0.9 1.7 0.00 0.00 0.00 94 1010.0
20260507200657 79 153 0.9 0.9 0.00 0.00 0.00 94 1010.0
20260507200158 79 145 0.0 0.0 0.00 0.00 0.00 94 1010.0
20260507195657 79 156 0.9 0.9 0.00 0.00 0.00 94 1010.0
20260507195158 79 136 1.7 1.7 0.00 0.00 0.00 93 1010.0
20260507194657 79 146 0.0 0.9 0.00 0.00 0.00 93 1010.0
20260507194157 79 157 0.9 1.7 0.00 0.00 0.00 93 1010.0
20260507193659 79 142 1.7 1.7 0.00 0.00 0.00 93 1010.0
20260507193158 79 152 0.9 1.7 0.00 0.00 0.00 93 1010.0
20260507192657 79 152 1.7 1.7 0.00 0.00 0.00 93 1011.0
20260507192157 79 155 0.0 0.0 0.00 0.00 0.00 93 1010.0
20260507191657 79 124 0.9 1.7 0.00 0.00 0.00 93 1010.0
20260507191157 79 140 1.7 1.7 0.00 0.00 0.00 93 1010.0
20260507190658 79 150 1.7 1.7 0.00 0.00 0.00 93 1011.0
20260507190158 79 119 2.6 2.6 0.00 0.00 0.00 93 1011.0
20260507185657 79 133 1.7 1.7 0.00 0.00 0.00 93 1011.0
20260507185157 79 151 0.9 0.9 0.00 0.00 0.00 93 1011.0
20260507184703 79 165 1.7 1.7 0.00 0.00 0.00 93 1011.0
20260507184157 79 141 2.6 2.6 0.00 0.00 0.00 93 1011.0
20260507183657 79 134 2.6 2.6 0.00 0.00 0.00 93 1011.0
20260507183158 79 109 2.6 2.6 0.00 0.00 0.00 92 1011.0
20260507182658 79 110 3.5 4.3 0.00 0.00 0.00 92 1011.0
20260507182157 79 123 4.3 4.3 0.00 0.00 0.00 92 1011.0
20260507181658 80 106 2.6 2.6 0.00 0.00 0.00 91 1011.0
20260507181158 80 139 0.9 0.9 0.00 0.00 0.00 91 1011.0
20260507180700 80 124 2.6 2.6 0.00 0.00 0.00 91 1011.0
20260507180157 80 135 1.7 1.7 0.00 0.00 0.00 91 1011.0
20260507175657 80 142 1.7 1.7 0.00 0.00 0.00 90 1011.0
20260507175157 80 157 0.0 0.9 0.00 0.00 0.00 90 1011.0
20260507174658 80 136 1.7 1.7 0.00 0.00 0.00 90 1011.0
20260507174157 80 158 0.9 1.7 0.00 0.00 0.00 90 1011.0
20260507173659 80 147 0.9 0.9 0.00 0.00 0.00 90 1011.0
20260507173158 80 144 0.9 0.9 0.00 0.00 0.00 90 1012.0
20260507172657 80 129 1.7 1.7 0.00 0.00 0.00 89 1012.0
20260507172159 80 140 0.9 0.9 0.00 0.00 0.00 89 1012.0
20260507171658 80 89 2.6 2.6 0.00 0.00 0.00 88 1012.0
20260507171157 80 150 0.0 0.0 0.00 0.00 0.00 88 1012.0
20260507170658 80 117 2.6 2.6 0.00 0.00 0.00 88 1012.0
20260507170157 81 132 1.7 1.7 0.00 0.00 0.00 88 1012.0
20260507165658 81 112 2.6 2.6 0.00 0.00 0.00 87 1012.0
20260507165159 81 154 1.7 1.7 0.00 0.00 0.00 87 1012.0
20260507164657 81 135 0.9 0.9 0.00 0.00 0.00 86 1012.0
20260507164157 82 138 1.7 1.7 0.00 0.00 0.00 86 1012.0
20260507163657 82 54 1.7 2.6 0.00 0.00 0.00 85 1012.0
20260507163158 82 138 1.7 1.7 0.00 0.00 0.00 85 1012.0
20260507162657 82 104 0.9 1.7 0.00 0.00 0.00 85 1012.0
20260507162157 82 153 1.7 2.6 0.00 0.00 0.00 85 1012.0
20260507161658 82 161 0.0 0.0 0.00 0.00 0.00 85 1012.0
20260507161157 82 102 0.0 0.0 0.00 0.00 0.00 85 1012.0
20260507160657 82 151 0.0 0.9 0.00 0.00 0.00 85 1012.0
20260507160157 83 123 0.9 0.9 0.00 0.00 0.00 85 1012.0
20260507155657 84 109 1.7 2.6 0.00 0.00 0.00 82 1012.0
20260507155157 84 149 0.0 0.0 0.00 0.00 0.00 81 1012.0
20260507154657 84 169 0.0 0.0 0.00 0.00 0.00 81 1012.0
20260507154158 84 170 0.0 0.0 0.00 0.00 0.00 81 1012.0
20260507153658 84 172 0.0 0.0 0.00 0.00 0.00 81 1012.0
20260507153159 85 168 0.9 0.9 0.00 0.00 0.00 81 1012.0
20260507152657 85 191 0.9 0.9 0.00 0.00 0.00 80 1012.0
20260507152157 85 222 1.7 1.7 0.00 0.00 0.00 80 1012.0
20260507151700 85 205 2.6 2.6 0.00 0.00 0.00 80 1012.0
20260507151157 85 167 0.9 1.7 0.00 0.00 0.00 80 1012.0
20260507150657 85 191 0.0 0.0 0.00 0.00 0.00 80 1012.0
20260507150157 85 192 0.0 0.0 0.00 0.00 0.00 80 1012.0
20260507145657 85 163 0.0 0.0 0.00 0.00 0.00 80 1012.0
20260507145158 85 233 0.9 0.9 0.00 0.00 0.00 80 1012.0
20260507144657 85 168 0.9 0.9 0.00 0.00 0.00 80 1012.0
20260507144157 85 186 0.9 0.9 0.00 0.00 0.00 80 1012.0
20260507143658 85 143 1.7 1.7 0.00 0.00 0.00 80 1012.0
20260507143157 85 208 2.6 2.6 0.00 0.00 0.00 80 1012.0
20260507142657 85 194 0.9 0.9 0.00 0.00 0.00 79 1012.0
20260507142157 85 182 0.0 0.0 0.00 0.00 0.00 79 1012.0
20260507141704 85 167 1.7 1.7 0.00 0.00 0.00 79 1012.0
20260507141157 85 204 0.0 0.0 0.00 0.00 0.00 79 1012.0
20260507140659 85 153 1.7 1.7 0.00 0.00 0.00 78 1012.0
20260507140158 85 283 3.5 5.2 0.00 0.00 0.00 78 1012.0
20260507135657 85 173 1.7 1.7 0.00 0.00 0.00 78 1012.0
20260507135157 85 246 2.6 2.6 0.00 0.00 0.00 78 1012.0
20260507134657 85 250 1.7 1.7 0.00 0.00 0.00 78 1012.0
20260507134157 85 160 2.6 2.6 0.00 0.00 0.00 78 1012.0
20260507133658 86 181 0.9 1.7 0.00 0.00 0.00 78 1012.0
20260507133157 86 193 1.7 1.7 0.00 0.00 0.00 77 1012.0
20260507132657 86 197 0.9 1.7 0.00 0.00 0.00 77 1012.0
20260507132158 86 169 0.9 0.9 0.00 0.00 0.00 77 1012.0
20260507131657 86 186 0.9 0.9 0.00 0.00 0.00 77 1012.0
20260507131159 86 224 2.6 2.6 0.00 0.00 0.00 77 1012.0
20260507130657 86 176 0.9 0.9 0.00 0.00 0.00 77 1012.0
20260507130158 86 210 2.6 2.6 0.00 0.00 0.00 76 1011.0
20260507125658 86 251 2.6 2.6 0.00 0.00 0.00 76 1011.0
20260507125200 86 316 4.3 4.3 0.00 0.00 0.00 76 1011.0
20260507124657 86 320 3.5 5.2 0.00 0.00 0.00 76 1011.0
20260507124158 86 286 1.7 1.7 0.00 0.00 0.00 76 1011.0
20260507123657 86 149 2.6 2.6 0.00 0.00 0.00 75 1011.0
20260507123157 86 219 2.6 4.3 0.00 0.00 0.00 75 1011.0
20260507122658 86 193 1.7 1.7 0.00 0.00 0.00 74 1011.0
20260507122158 86 258 1.7 2.6 0.00 0.00 0.00 74 1011.0
20260507121658 86 344 3.5 5.2 0.00 0.00 0.00 73 1011.0
20260507121157 86 174 1.7 1.7 0.00 0.00 0.00 73 1011.0
20260507120658 86 336 3.5 5.2 0.00 0.00 0.00 72 1010.0
20260507120157 86 284 2.6 2.6 0.00 0.00 0.00 72 1010.0
20260507115658 86 191 3.5 6.1 0.00 0.00 0.00 72 1010.0
20260507115157 86 282 3.5 4.3 0.00 0.00 0.00 72 1010.0
20260507114657 86 198 1.7 1.7 0.00 0.00 0.00 72 1010.0
20260507114157 86 327 2.6 4.3 0.00 0.00 0.00 72 1010.0
20260507113657 86 298 2.6 2.6 0.00 0.00 0.00 72 1010.0
20260507113157 86 292 2.6 4.3 0.00 0.00 0.00 71 1010.0
20260507112657 87 245 2.6 2.6 0.00 0.00 0.00 71 1010.0
20260507112157 87 312 4.3 5.2 0.00 0.00 0.00 71 1010.0
20260507111657 87 311 4.3 5.2 0.00 0.00 0.00 71 1010.0
20260507111157 87 185 1.7 1.7 0.00 0.00 0.00 71 1010.0
20260507110657 87 326 4.3 5.2 0.00 0.00 0.00 70 1010.0
20260507110159 87 167 0.9 0.9 0.00 0.00 0.00 71 1010.0
20260507105659 87 187 0.9 1.7 0.00 0.00 0.00 70 1010.0
20260507105157 87 232 1.7 1.7 0.00 0.00 0.00 69 1009.0
20260507104659 87 260 2.6 4.3 0.00 0.00 0.00 68 1009.0
20260507104157 87 252 4.3 5.2 0.00 0.00 0.00 67 1009.0
20260507103657 88 196 1.7 1.7 0.00 0.00 0.00 67 1009.0
20260507103158 88 212 2.6 2.6 0.00 0.00 0.00 66 1009.0
20260507102659 88 295 4.3 5.2 0.00 0.00 0.00 66 1009.0
20260507102158 88 286 2.6 4.3 0.00 0.00 0.00 65 1009.0
20260507101657 88 293 5.2 7.0 0.00 0.00 0.00 64 1009.0
20260507101157 88 257 4.3 5.2 0.00 0.00 0.00 64 1009.0
20260507100657 89 295 4.3 5.2 0.00 0.00 0.00 63 1009.0
20260507100158 89 312 5.2 5.2 0.00 0.00 0.00 61 1009.0
20260507095657 89 188 2.6 2.6 0.00 0.00 0.00 61 1009.0
20260507095157 89 235 3.5 4.3 0.00 0.00 0.00 61 1009.0
20260507094657 89 275 3.5 5.2 0.00 0.00 0.00 62 1009.0
20260507094157 89 275 4.3 5.2 0.00 0.00 0.00 61 1009.0
20260507093657 90 311 4.3 5.2 0.00 0.00 0.00 62 1009.0
20260507093157 90 258 4.3 5.2 0.00 0.00 0.00 62 1009.0
20260507092657 90 323 4.3 6.1 0.00 0.00 0.00 61 1009.0
20260507092157 90 202 1.7 2.6 0.00 0.00 0.00 61 1009.0
20260507091657 90 254 5.2 7.0 0.00 0.00 0.00 61 1009.0
20260507091157 90 268 4.3 5.2 0.00 0.00 0.00 61 1009.0
20260507090658 90 286 6.1 7.8 0.00 0.00 0.00 60 1009.0
20260507090157 90 232 7.0 7.8 0.00 0.00 0.00 60 1009.0
20260507085658 90 310 4.3 6.1 0.00 0.00 0.00 62 1009.0
20260507085157 90 312 7.0 8.7 0.00 0.00 0.00 63 1009.0
20260507084657 91 301 5.2 6.1 0.00 0.00 0.00 62 1009.0
20260507084158 91 265 6.1 7.0 0.00 0.00 0.00 60 1009.0
20260507083658 91 266 7.0 7.8 0.00 0.00 0.00 59 1009.0
20260507083158 91 303 6.1 6.1 0.00 0.00 0.00 59 1009.0
20260507082657 91 304 6.1 7.0 0.00 0.00 0.00 58 1009.0
20260507082157 90 294 4.3 5.2 0.00 0.00 0.00 60 1009.0
20260507081657 91 331 9.6 9.6 0.00 0.00 0.00 60 1009.0
20260507081157 91 323 7.8 8.7 0.00 0.00 0.00 62 1009.0
20260507080657 91 324 2.6 4.3 0.00 0.00 0.00 60 1009.0
20260507080158 91 284 6.1 7.0 0.00 0.00 0.00 60 1009.0
20260507075659 91 312 7.0 7.8 0.00 0.00 0.00 60 1009.0
20260507075158 91 296 5.2 9.6 0.00 0.00 0.00 62 1009.0
20260507074657 92 263 4.3 5.2 0.00 0.00 0.00 59 1009.0
20260507074158 92 177 4.3 4.3 0.00 0.00 0.00 58 1009.0
20260507073658 91 204 6.1 9.6 0.00 0.00 0.00 59 1009.0
20260507073157 91 296 5.2 6.1 0.00 0.00 0.00 59 1010.0
20260507072657 91 212 6.1 6.1 0.00 0.00 0.00 59 1010.0
20260507072158 91 324 7.0 9.6 0.00 0.00 0.00 60 1010.0
20260507071658 91 291 9.6 12.2 0.00 0.00 0.00 60 1010.0
20260507071158 91 261 7.8 8.7 0.00 0.00 0.00 60 1010.0
20260507070659 91 284 7.0 7.8 0.00 0.00 0.00 62 1010.0
20260507070157 91 290 3.5 5.2 0.00 0.00 0.00 60 1010.0
20260507065658 92 288 9.6 11.3 0.00 0.00 0.00 59 1010.0
20260507065157 91 304 4.3 6.1 0.00 0.00 0.00 58 1010.0
20260507064657 91 344 6.1 7.0 0.00 0.00 0.00 61 1010.0
20260507064158 91 214 5.2 7.8 0.00 0.00 0.00 61 1010.0
20260507063657 91 281 5.2 6.1 0.00 0.00 0.00 62 1010.0
20260507063159 91 196 6.1 6.1 0.00 0.00 0.00 62 1010.0
20260507062658 91 319 4.3 6.1 0.00 0.00 0.00 61 1010.0
20260507062157 91 316 9.6 11.3 0.00 0.00 0.00 61 1010.0
20260507061657 91 315 4.3 6.1 0.00 0.00 0.00 60 1010.0
20260507061158 91 288 8.7 12.2 0.00 0.00 0.00 59 1010.0
20260507060657 91 265 9.6 9.6 0.00 0.00 0.00 59 1010.0
20260507060157 91 311 9.6 11.3 0.00 0.00 0.00 60 1010.0
20260507055658 91 298 10.4 11.3 0.00 0.00 0.00 60 1010.0
20260507055157 91 269 7.0 8.7 0.00 0.00 0.00 58 1010.0
20260507054658 92 278 7.8 11.3 0.00 0.00 0.00 58 1010.0
20260507054158 92 320 7.8 8.7 0.00 0.00 0.00 57 1010.0
20260507053658 92 156 2.6 4.3 0.00 0.00 0.00 56 1010.0
20260507053157 92 295 7.8 9.6 0.00 0.00 0.00 56 1011.0
20260507052657 92 299 4.3 6.1 0.00 0.00 0.00 57 1011.0
20260507052158 92 290 7.0 7.8 0.00 0.00 0.00 56 1011.0
20260507051657 92 255 6.1 7.8 0.00 0.00 0.00 56 1010.0
20260507051157 92 283 6.1 7.8 0.00 0.00 0.00 56 1011.0
20260507050657 92 270 4.3 6.1 0.00 0.00 0.00 56 1011.0
20260507050158 93 284 7.8 8.7 0.00 0.00 0.00 54 1011.0
20260507045657 92 297 5.2 5.2 0.00 0.00 0.00 55 1011.0
20260507045157 92 250 4.3 5.2 0.00 0.00 0.00 56 1011.0
20260507044657 92 237 6.1 7.8 0.00 0.00 0.00 56 1011.0
20260507044157 92 280 7.0 8.7 0.00 0.00 0.00 56 1011.0
20260507043658 92 305 6.1 9.6 0.00 0.00 0.00 56 1011.0
20260507043158 91 275 6.1 7.0 0.00 0.00 0.00 56 1012.0
20260507042657 92 295 2.6 4.3 0.00 0.00 0.00 56 1012.0
20260507042157 92 272 2.6 4.3 0.00 0.00 0.00 56 1012.0
20260507041659 91 271 6.1 7.0 0.00 0.00 0.00 56 1011.0
20260507041157 92 293 7.8 8.7 0.00 0.00 0.00 55 1012.0
20260507040657 91 221 3.5 4.3 0.00 0.00 0.00 56 1012.0
20260507040157 92 346 6.1 11.3 0.00 0.00 0.00 56 1012.0
20260507035658 91 291 6.1 7.0 0.00 0.00 0.00 55 1012.0
20260507035158 91 208 7.8 8.7 0.00 0.00 0.00 54 1012.0
20260507034657 92 273 6.1 7.0 0.00 0.00 0.00 55 1012.0
20260507034159 92 263 4.3 6.1 0.00 0.00 0.00 55 1012.0
20260507033657 92 223 5.2 6.1 0.00 0.00 0.00 55 1012.0
20260507033158 92 272 2.6 4.3 0.00 0.00 0.00 58 1012.0
20260507032658 92 308 7.0 7.8 0.00 0.00 0.00 58 1012.0
20260507032157 91 231 3.5 4.3 0.00 0.00 0.00 61 1012.0
20260507031657 91 323 4.3 4.3 0.00 0.00 0.00 59 1012.0
20260507031157 91 269 6.1 7.0 0.00 0.00 0.00 58 1012.0
20260507030657 91 279 8.7 9.6 0.00 0.00 0.00 59 1012.0
20260507030158 90 248 1.7 1.7 0.00 0.00 0.00 64 1012.0
20260507025657 90 311 6.1 7.0 0.00 0.00 0.00 64 1012.0
20260507025157 90 110 2.6 2.6 0.00 0.00 0.00 65 1012.0
20260507024658 91 304 2.6 2.6 0.00 0.00 0.00 65 1013.0
20260507024157 89 242 3.5 4.3 0.00 0.00 0.00 67 1013.0
20260507023700 89 252 4.3 5.2 0.00 0.00 0.00 67 1013.0
20260507023157 88 276 5.2 7.0 0.00 0.00 0.00 69 1013.0
20260507022657 88 356 2.6 4.3 0.00 0.00 0.00 69 1013.0
20260507022157 89 48 2.6 4.3 0.00 0.00 0.00 70 1013.0
20260507021657 88 184 0.9 1.7 0.00 0.00 0.00 73 1012.0
20260507021158 87 81 2.6 2.6 0.00 0.00 0.00 73 1013.0
20260507020657 87 59 6.1 7.8 0.00 0.00 0.00 73 1013.0
20260507020157 89 200 1.7 2.6 0.00 0.00 0.00 72 1012.0
20260507015657 87 162 0.0 0.0 0.00 0.00 0.00 75 1013.0
20260507015157 86 159 0.0 0.0 0.00 0.00 0.00 77 1013.0
20260507014657 86 61 1.7 4.3 0.00 0.00 0.00 77 1013.0
20260507014159 87 170 0.9 0.9 0.00 0.00 0.00 77 1013.0
20260507013658 86 105 1.7 1.7 0.00 0.00 0.00 77 1013.0
20260507013158 86 143 1.7 1.7 0.00 0.00 0.00 78 1013.0
20260507012658 86 147 1.7 2.6 0.00 0.00 0.00 79 1013.0
20260507012157 85 151 1.7 1.7 0.00 0.00 0.00 80 1013.0
20260507011657 84 161 0.9 0.9 0.00 0.00 0.00 82 1013.0
20260507011157 84 132 1.7 1.7 0.00 0.00 0.00 82 1013.0
20260507010657 84 32 2.6 2.6 0.00 0.00 0.00 82 1013.0
20260507010157 84 146 1.7 1.7 0.00 0.00 0.00 82 1013.0
20260507005657 83 105 2.6 2.6 0.00 0.00 0.00 82 1013.0
20260507005157 83 152 1.7 2.6 0.00 0.00 0.00 83 1013.0
20260507004658 82 151 1.7 1.7 0.00 0.00 0.00 85 1013.0
20260507004157 82 160 1.7 1.7 0.00 0.00 0.00 85 1013.0
20260507003657 82 108 2.6 2.6 0.00 0.00 0.00 86 1013.0
20260507003158 81 148 1.7 1.7 0.00 0.00 0.00 86 1013.0
20260507002657 81 151 0.9 1.7 0.00 0.00 0.00 87 1013.0
20260507002158 81 112 0.9 1.7 0.00 0.00 0.00 88 1013.0
20260507001657 80 90 2.6 2.6 0.00 0.00 0.00 88 1013.0
20260507001157 80 148 0.9 0.9 0.00 0.00 0.00 89 1013.0
20260507000657 80 101 0.9 1.7 0.00 0.00 0.00 89 1013.0
20260507000157 80 112 1.7 1.7 0.00 0.00 0.00 88 1012.0
20260506235657 79 134 0.0 0.9 0.00 0.00 0.00 89 1012.0
20260506235158 79 77 3.5 4.3 0.00 0.00 0.00 89 1012.0
20260506234657 79 136 1.7 2.6 0.00 0.00 0.00 89 1012.0
20260506234157 79 142 1.7 1.7 0.00 0.00 0.00 90 1012.0
20260506233658 79 135 1.7 2.6 0.00 0.00 0.00 89 1012.0
20260506233158 79 150 1.7 1.7 0.00 0.00 0.00 90 1012.0
20260506232657 79 150 0.9 0.9 0.00 0.00 0.00 90 1012.0
20260506232157 78 145 0.9 0.9 0.00 0.00 0.00 91 1012.0
20260506231657 78 162 1.7 1.7 0.00 0.00 0.00 91 1012.0
20260506231157 78 141 0.9 1.7 0.00 0.00 0.00 92 1012.0
20260506230658 78 145 2.6 2.6 0.00 0.00 0.00 92 1012.0
20260506230157 78 139 1.7 1.7 0.00 0.00 0.00 93 1012.0
20260506225657 78 141 1.7 1.7 0.00 0.00 0.00 93 1012.0
20260506225157 77 161 0.9 0.9 0.00 0.00 0.00 94 1012.0